Regional Weather Roundup
Issued by NWS

Home | Current Version | Previous Version | Text Only | Print | Product List | Glossary On
Versions: 1 2 3 4 5 6 7 8 9 10 11 12 13 14 15 16 17 18 19 20 21 22 23 24 25 26 27 28 29 30 31 32 33 34 35 36 37 38 39 40 41 42 43 44 45 46 47 48 49 50
000
ASUS43 KOAX 030610
RWRNE

WEATHER ROUNDUP FOR NEBRASKA
NATIONAL WEATHER SERVICE OMAHA NE
100 AM CDT MON AUG 03 2015

NOTES: SATELLITE DATA IS BEING USED TO AUGMENT CLOUD COVER ABOVE
       12000 FEET.
       "FAIR" INDICATES FEW OR NO CLOUDS BELOW 12,000 FEET WITH NO
       SIGNIFICANT WEATHER AND/OR OBSTRUCTIONS TO VISIBILITY.

  * THESE STATIONS DO NOT REPORT WEATHER SUCH AS RAIN...SNOW OR FOG.

NEZ001>004-019>022-054>056-030700-
NEBRASKA PANHANDLE

CITY           SKY/WX    TMP DP  RH WIND       PRES   REMARKS
SCOTTSBLUFF    PTCLDY    66  58  75 E8        30.00S
6HR MIN TEMP:  66; 6HR MAX TEMP:  89;

ALLIANCE       PTCLDY    63  55  75 E8        30.02R
6HR MIN TEMP:  61; 6HR MAX TEMP:  90;

CHADRON        PTCLDY    66  57  72 NE9       30.01R
6HR MIN TEMP:  66; 6HR MAX TEMP:  89;

KIMBALL        MOCLDY    65  55  70 S8        30.06R
SIDNEY         MOCLDY    67  55  65 S7        30.04F
6HR MIN TEMP:  66; 6HR MAX TEMP:  89;

$$

NEZ057>060-069>072-079>082-030700-
SOUTHWEST NEBRASKA

CITY           SKY/WX    TMP DP  RH WIND       PRES   REMARKS
NORTH PLATTE   MOCLDY    63  58  83 CALM      29.97S
6HR MIN TEMP:  63; 6HR MAX TEMP:  80;

IMPERIAL       PTCLDY    74  52  46 SW7       29.98F
6HR MIN TEMP:  74; 6HR MAX TEMP:  85;

LEXINGTON      MOCLDY    65  59  80 NE7       29.95R
MCCOOK         PTCLDY    70  57  63 SW7       29.94S
6HR MIN TEMP:  68; 6HR MAX TEMP:  85; 6HR PCP: TRACE;

OGALLALA       PTCLDY    71  56  59 SW6       29.98F
$$

NEZ005>010-023>029-035>040-094-030700-
NORTH CENTRAL NEBRASKA

CITY           SKY/WX    TMP DP  RH WIND       PRES   REMARKS
AINSWORTH      CLEAR     65  62  89 CALM      30.00R
BROKEN BOW     PTCLDY    65  59  81 NW5       29.98R
6HR MIN TEMP:  63; 6HR MAX TEMP:  83; 6HR PCP: TRACE;

O`NEILL        CLEAR     67  61  80 NE3       29.97R
ORD            CLEAR     67  64  90 NW6       29.94R
6HR MIN TEMP:  66; 6HR MAX TEMP:  82;

THEDFORD       PTCLDY    68  62  82 E6        30.01S
$$

NEZ041-046>049-061>064-073>077-083>087-030700-
SOUTH CENTRAL NEBRASKA

CITY           SKY/WX    TMP DP  RH WIND       PRES   REMARKS
GRAND ISLAND   PTCLDY    67  62  84 NE3       29.93R
6HR MIN TEMP:  65; 6HR MAX TEMP:  84;

AURORA         PTCLDY    68  67  96 NE6       29.92S
HASTINGS       MOCLDY    67  60  78 NE5       29.93R
6HR MIN TEMP:  66; 6HR MAX TEMP:  91;

HEBRON         PTCLDY    73  69  85 N3        29.89R
HOLDREGE       MOCLDY    66  56  70 E6        29.96R
KEARNEY *      MOCLDY    64  57  77 NW14      29.95R
YORK           PTCLDY    70  66  88 E7        29.92S
$$

NEZ011>018-030>034-042>045-030700-
NORTHEAST NEBRASKA

CITY           SKY/WX    TMP DP  RH WIND       PRES   REMARKS
NORFOLK        CLEAR     70  63  78 N6        29.93R
6HR MIN TEMP:  68; 6HR MAX TEMP:  88;

ALBION         CLEAR     68  64  86 CALM      29.95R
BLAIR          CLEAR     72  68  86 CALM      29.90R
COLUMBUS *     CLEAR     68  63  83 NE3       29.92R
FREMONT        CLEAR     73  69  87 CALM      29.90S
TEKAMAH        CLEAR     72  69  90 N5        29.89R
6HR MIN TEMP:  72; 6HR MAX TEMP:  88;

WAYNE          CLEAR     67  63  87 N7        29.93R
$$

NEZ050>053-065>068-078-088>093-030700-
SOUTHEAST NEBRASKA

CITY           SKY/WX    TMP DP  RH WIND       PRES   REMARKS
LINCOLN        CLEAR     74  60  61 N6        29.90R
6HR MIN TEMP:  72; 6HR MAX TEMP:  89;

OMAHA EPPLEY   PTCLDY    73  71  93 NW6       29.88R
6HR MIN TEMP:  73; 6HR MAX TEMP:  91; 6HR PCP: TRACE;

BEATRICE       CLEAR     77  72  83 E5        29.87F
FALLS CITY     PTCLDY    76  72  87 E3        29.86R
6HR MIN TEMP:  76; 6HR MAX TEMP:  88;

NEBRASKA CITY  CLEAR     75  73  92 N5        29.87S
PLATTSMOUTH    PTCLDY    74  72  92 N5        29.88S
$$

NEZ044-045-051>053-067-030700-
OMAHA AREA

CITY           SKY/WX    TMP DP  RH WIND       PRES   REMARKS
OMAHA EPPLEY   PTCLDY    73  71  93 NW6       29.88R
6HR MIN TEMP:  73; 6HR MAX TEMP:  91; 6HR PCP: TRACE;

BLAIR          CLEAR     72  68  86 CALM      29.90R
FREMONT        CLEAR     73  69  87 CALM      29.90S
MILLARD        CLEAR     76  72  86 CALM      29.88R
OFFUTT AFB     CLEAR     74  71  89 NE2       29.86S
PLATTSMOUTH    PTCLDY    74  72  92 N5        29.88S
WAHOO          FAIR      69  66  92 N5        29.89F
$$



USA.gov is the U.S. government's official web portal to all federal, state and local government web resources and services.